SL-3 R/B

Satellite information

Favourite Embed

Satellite Type and Status

ROCKET BODYIN ORBIT

Key statistics

Satellite SL-3 R/B at a glance.

Uptime

18030

Days in orbit

Revolutions

≈ 14.1

Per day

Orbit

LEO

Low Earth Orbit

Inclination

81.3

Latest

Satellite identification and parameters

Extended collection of information and parameters for SL-3 R/B.

Object identification

Identified? True

Debris? False

Object name: SL-3 R/B

International designator: 1975-124B

Object number (NORAD): 8520

Object ID (CCSDS): 8520

Country: COMMONWEALTH OF INDEPENDENT STATES (CIS)

Current information (Y/N): Y

RCS size: LARGE

Orbital parameters

Period: 102.174 minutes

Inclination: 81.2866 deg

SMA: 7239.69 km

Apoapsis: 885.605 km

Periapsis: 837.506 km

RAAN: 263.7013 deg

Eccentricy: 0.0033219

Argument of periapsis: 125.4879 deg

Mean anomaly: 234.9399 deg

Mean motion: 14.09362711 rev/day

Mean motion (dot): 0.00000259 rev/day2

B* drag term: 0.00014025 1/REarth

Two-line elements (TLE)

Creation date: May 6, 2025, 3:54 a.m.

Reference frame: TEME

Reference center: EARTH

Epoch: May 5, 2025, 8:29 p.m. UTC

TLE line 0: 0 SL-3 R/B

TLE line 1: 1 08520U 75124B 25125.85362830 .00000259 00000-0 14025-3 0 9995

TLE line 2: 2 08520 81.2866 263.7013 0033219 125.4879 234.9399 14.09362711536427

Live tracking on map

Real-time ground track for satellite SL-3 R/B.

In-orbit conjunctions

A list of the most updated potential collisions computed for object SL-3 R/B.

Target Orbit TCA Probability of collision Miss distance Type
NOAA 16 DEB SSO 2024-10-21 00:52:40 0.0001594767 172.0 (m) DEBRIS
FENGYUN 1C DEB SSO 2024-08-20 20:00:59 0.000127444 364.0 (m) DEBRIS
FENGYUN 1C DEB SSO 2024-07-20 03:57:12 0.000204622 525.0 (m) DEBRIS

Associated space launch

The Meteor-1 series was the first series of Soviet meteorological satellites.

SL-3 R/B was lifted into orbit during the mission ‘Vostok 8A92M | Meteor-1 23 (38L)’, on board a Vostok 8A92M space rocket.

The launch took place on Dec. 25, 1975, 7 p.m. from 41/1.

For more information about the launch, click the button.

Launch to space Vostok 8A92M | Meteor-1 23 (38L)
Vostok 8A92M | Meteor-1 23 (38L)

Agency: N/A

Status: Launch Successful

Launch date: Dec. 25, 1975, 7 p.m. UTC

Rocket: Vostok 8A92M

Launch pad: 41/1

Location: Plesetsk Cosmodrome, Russian Federation

...

Latest news about this satellite

There are no fresh news available about this satellite. Check back as we update our databases every day.


Newsletter sign-up

Weekly statistics, charts and insights to help you stay on top of the space industry.